Flag Weather past 2 weeks in Kannauj, Uttar Pradesh, India

Now
79 °F

Haze.


Feels Like: 79 °F
Forecast: 64 / 83 °F
Wind: 2 mph from North

Location: Lucknow / Amausi

Current Time: Nov 29, 2014 at 12:17:22 PM

Latest Report: Nov 29, 2014 at 11:30 AM


Visibility: 2 mi

Pressure: 29.95 "Hg

Humidity: 45%

Dew point: 55 °F

Location of KannaujLocation

Historic Weather in Kannauj — Graph

°F

Kannauj temperature yesterday

Maximum temperature yesterday: 81 °F (at 3:00 PM)
Minimum temperature yesterday: 52 °F (at 5:30 AM)
Average temperature yesterday: 65 °F

Past Weeks' High & Low Weather Summary

 TemperatureHumidityPressure
High82 °F (Nov 14, 2:30 PM)100% (Nov 28, 5:30 AM)30.80 "Hg (Nov 28, 5:30 AM)
Low48 °F (Nov 25, 6:00 AM)24% (Nov 15, 2:30 PM)29.77 "Hg (Nov 26, 3:30 PM)
Average67 °F59%29.94 "Hg
* Reported Nov 14 10:30 AM — Nov 29 11:00 AM, Kannauj, Weather by CustomWeather, © 2014

Note: Actual official high and low records may vary slightly from our data, if they occured in-between our weather recording intervals... More about our weather records

Advertising

Kannauj weather history for previous 24 hours

 ConditionsComfort  
Time TempWeatherWind HumidityBarometerVisibility
11:00 AM
Nov 29
75 °FHaze.2 mph54%29.98 "Hg1 mi
10:30 AM75 °FHaze.No wind54%29.98 "Hg1 mi
10:00 AM72 °FFog.No wind65%29.98 "Hg1 mi
5:00 AM55 °FFog.No wind94%29.89 "Hg1 mi
3:00 AM55 °FFog.No wind94%29.86 "Hg1 mi
11:00 PM
Nov 28
59 °FHaze.No wind88%29.89 "Hg1 mi
9:00 PM61 °FHaze.No wind83%29.89 "Hg1 mi
8:30 PM61 °FHaze.No wind83%29.89 "Hg1 mi
8:00 PM64 °FHaze.No wind78%29.89 "Hg1 mi
7:30 PM64 °FHaze.No wind78%29.89 "Hg2 mi
7:00 PM66 °FHaze.No wind73%29.89 "Hg2 mi
6:30 PM66 °FHaze.No wind73%29.89 "Hg2 mi
6:00 PM70 °FHaze.No wind73%29.86 "Hg2 mi
5:30 PM72 °FHaze.No wind65%29.86 "Hg2 mi
4:30 PM79 °FHaze.2 mph39%29.86 "Hg2 mi
4:00 PM81 °FHaze.2 mph37%29.86 "Hg2 mi
3:30 PM81 °FHaze.2 mph37%29.86 "Hg2 mi
3:00 PM81 °FHaze.2 mph37%29.86 "Hg2 mi
1:30 PM79 °FHaze.2 mph39%29.89 "Hg2 mi
1:00 PM79 °FHaze.2 mph39%29.92 "Hg2 mi
12:30 PM77 °FHaze.2 mph42%29.92 "Hg2 mi
Weather by CustomWeather, © 2014

See weather overviewHow to use our weather pages